Location: Home
(42.5358°N, 72.7383°W)
Time: 02:57:28
(UTC-05:00)

Courier 1B Rocket - Pass Details

Date: 30 November 2021
Orbit: 920 x 1202 km, 28.3° (Epoch: 28 January)

Event Time Altitude Azimuth Distance (km) Brightness Sun altitude
Exits shadow 03:47:56 15° 169° (SSE) 2,366 7.1 -34.8°
Drops below altitude 10° 03:49:53 10° 153° (SSE) 2,745 7.6 -34.4°
Sets 03:53:34 0° 135° (SE) 3,749 8.6 -33.8°
